When you browse on this site, cookies collect data to enhance your experience and personalize the content and advertising you see.
Visit our Privacy Policy to learn more. By continuing to use the site, you agree to this use of cookies and data.
  • In Czech Republic
  • List of Countries
  • For 7 days
  • Water Temperature
  • Satellite Maps
  • Weather Map
  • Weather Widgets
  • user-avatar
    Login

    Hourly Weather Matlock

    Today, 20 January, Sunday

    Time Temperature Precipitation Wind Pressure Humidity
    00:00 +2°C° 0 mm 1 mps 742 mmHg 93%
    01:00 +2°C° 0 mm 1 mps 742 mmHg 93%
    02:00 +1°C° 0 mm 1 mps 742 mmHg 93%
    03:00 +1°C° 0 mm 1 mps 743 mmHg 93%
    04:00 +1°C° 0 mm 1 mps 743 mmHg 92%
    05:00 +1°C° 0 mm 1 mps 743 mmHg 92%
    06:00 +1°C° 0 mm 1 mps 744 mmHg 91%
    07:00 0°C° 0 mm 0 mps 744 mmHg 91%
    08:00 +1°C° 0 mm 0 mps 745 mmHg 90%
    09:00 +1°C° 0 mm 0 mps 745 mmHg 89%
    10:00 +2°C° 0 mm 0 mps 746 mmHg 86%
    11:00 +3°C° 0 mm 0 mps 746 mmHg 84%
    12:00 +3°C° 0 mm 0 mps 747 mmHg 81%
    13:00 +5°C° 0 mm 1 mps 747 mmHg 83%
    14:00 +5°C° 0 mm 1 mps 747 mmHg 84%
    15:00 +5°C° 0 mm 1 mps 748 mmHg 86%
    16:00 +3°C° 0 mm 2 mps 748 mmHg 89%
    17:00 +2°C° 0 mm 2 mps 748 mmHg 91%
    18:00 +1°C° 0 mm 2 mps 749 mmHg 93%
    19:00 +1°C° 0 mm 2 mps 749 mmHg 93%
    20:00 +1°C° 0 mm 2 mps 750 mmHg 93%
    21:00 +1°C° 0 mm 2 mps 750 mmHg 93%
    22:00 +1°C° 0 mm 2 mps 751 mmHg 94%
    23:00 +1°C° 0 mm 2 mps 751 mmHg 94%

    Tomorrow, 21 January, Monday

    Time Temperature Precipitation Wind Pressure Humidity
    00:00 +1°C° 0 mm 2 mps 751 mmHg 94%
    01:00 +1°C° 0 mm 2 mps 751 mmHg 94%
    02:00 +2°C° 0 mm 1 mps 751 mmHg 94%
    03:00 +2°C° 0 mm 1 mps 751 mmHg 94%
    04:00 +2°C° 0 mm 1 mps 751 mmHg 93%
    05:00 +1°C° 0 mm 0 mps 751 mmHg 93%
    06:00 +1°C° 0 mm 0 mps 750 mmHg 93%
    07:00 +2°C° 0 mm 1 mps 750 mmHg 93%
    08:00 +2°C° 0 mm 1 mps 750 mmHg 94%
    09:00 +2°C° 0 mm 1 mps 750 mmHg 94%
    10:00 +2°C° 0 mm 2 mps 749 mmHg 92%
    11:00 +2°C° 0 mm 3 mps 749 mmHg 90%
    12:00 +3°C° 0 mm 4 mps 748 mmHg 88%
    13:00 +3°C° 0 mm 4 mps 747 mmHg 88%
    14:00 +3°C° 0 mm 4 mps 746 mmHg 87%
    15:00 +2°C° 0 mm 5 mps 745 mmHg 86%
    16:00 +2°C° 0 mm 5 mps 744 mmHg 88%
    17:00 +2°C° 0 mm 6 mps 743 mmHg 89%
    18:00 +2°C° 0 mm 6 mps 742 mmHg 91%
    19:00 +2°C° 0.3 mm 7 mps 740 mmHg 90%
    20:00 +1°C° 0.3 mm 8 mps 739 mmHg 90%
    21:00 +1°C° 0.3 mm 8 mps 737 mmHg 89%
    22:00 +1°C° 1.5 mm 8 mps 736 mmHg 89%
    23:00 +1°C° 1.5 mm 8 mps 735 mmHg 89%

    Day after tomorrow, 22 January, Tuesday

    Time Temperature Precipitation Wind Pressure Humidity
    00:00 +1°C° 1.5 mm 8 mps 734 mmHg 89%
    01:00 0°C° 0.4 mm 7 mps 734 mmHg 88%
    02:00 -1°C° 0.4 mm 6 mps 734 mmHg 87%
    03:00 -1°C° 0.4 mm 5 mps 733 mmHg 86%
    04:00 -1°C° 0 mm 5 mps 733 mmHg 85%
    05:00 -1°C° 0 mm 5 mps 733 mmHg 84%
    06:00 -1°C° 0 mm 5 mps 732 mmHg 83%
    07:00 -1°C° 0 mm 5 mps 733 mmHg 83%
    08:00 -2°C° 0 mm 5 mps 733 mmHg 84%
    09:00 -2°C° 0 mm 4 mps 733 mmHg 84%
    10:00 -1°C° 0.2 mm 4 mps 733 mmHg 81%
    11:00 -1°C° 0.2 mm 5 mps 733 mmHg 77%
    12:00 0°C° 0.2 mm 5 mps 733 mmHg 74%
    13:00 0°C° 0.2 mm 5 mps 733 mmHg 74%
    14:00 0°C° 0.2 mm 5 mps 733 mmHg 75%
    15:00 0°C° 0.2 mm 4 mps 733 mmHg 76%
    16:00 -1°C° 0 mm 4 mps 733 mmHg 78%
    17:00 -2°C° 0 mm 4 mps 733 mmHg 81%
    18:00 -2°C° 0 mm 3 mps 734 mmHg 83%
    19:00 -2°C° 0 mm 3 mps 734 mmHg 84%
    20:00 -4°C° 0 mm 3 mps 734 mmHg 84%
    21:00 -4°C° 0 mm 3 mps 734 mmHg 84%
    22:00 -3°C° 0 mm 2 mps 734 mmHg 84%
    23:00 -3°C° 0 mm 2 mps 735 mmHg 84%

    23 January, Wednesday

    Time Temperature Precipitation Wind Pressure Humidity
    00:00 -3°C° 0 mm 2 mps 735 mmHg 84%
    01:00 -3°C° 0 mm 2 mps 735 mmHg 84%
    02:00 -3°C° 0 mm 2 mps 735 mmHg 84%
    03:00 -3°C° 0 mm 2 mps 735 mmHg 84%
    04:00 -3°C° 0 mm 2 mps 735 mmHg 84%
    05:00 -3°C° 0 mm 2 mps 736 mmHg 84%
    06:00 -3°C° 0 mm 2 mps 736 mmHg 84%
    07:00 -3°C° 0 mm 2 mps 736 mmHg 84%
    08:00 -2°C° 0 mm 2 mps 736 mmHg 83%
    09:00 -2°C° 0 mm 2 mps 737 mmHg 83%
    10:00 -1°C° 0 mm 2 mps 737 mmHg 79%
    11:00 +1°C° 0 mm 2 mps 738 mmHg 75%
    12:00 +2°C° 0 mm 2 mps 738 mmHg 71%
    13:00 +2°C° 0 mm 2 mps 738 mmHg 73%
    14:00 +2°C° 0 mm 2 mps 738 mmHg 75%
    15:00 +2°C° 0 mm 2 mps 738 mmHg 77%
    16:00 +1°C° 0 mm 2 mps 738 mmHg 80%
    17:00 -1°C° 0 mm 2 mps 739 mmHg 84%
    18:00 -1°C° 0 mm 2 mps 739 mmHg 88%
    19:00 -1°C° 0 mm 2 mps 739 mmHg 88%
    20:00 -1°C° 0 mm 2 mps 739 mmHg 88%
    21:00 -1°C° 0 mm 2 mps 739 mmHg 88%
    22:00 -1°C° 0 mm 2 mps 739 mmHg 89%
    23:00 -1°C° 0 mm 2 mps 739 mmHg 89%

    24 January, Thursday

    Time Temperature Precipitation Wind Pressure Humidity
    00:00 +1°C° 0 mm 2 mps 739 mmHg 90%
    01:00 +1°C° 0.1 mm 2 mps 739 mmHg 91%
    02:00 +1°C° 0.1 mm 2 mps 738 mmHg 92%
    03:00 +1°C° 0.1 mm 2 mps 738 mmHg 93%
    04:00 +2°C° 0.1 mm 1 mps 738 mmHg 93%
    05:00 +2°C° 0.1 mm 1 mps 738 mmHg 94%
    06:00 +2°C° 0.1 mm 1 mps 738 mmHg 94%
    07:00 +2°C° 0 mm 1 mps 738 mmHg 94%
    08:00 +2°C° 0 mm 1 mps 739 mmHg 93%
    09:00 +3°C° 0 mm 1 mps 739 mmHg 93%
    10:00 +2°C° 0 mm 2 mps 739 mmHg 91%
    11:00 +3°C° 0 mm 2 mps 740 mmHg 89%
    12:00 +4°C° 0 mm 2 mps 740 mmHg 87%
    13:00 +4°C° 0 mm 2 mps 740 mmHg 87%
    14:00 +3°C° 0 mm 2 mps 741 mmHg 88%
    15:00 +3°C° 0 mm 2 mps 741 mmHg 88%
    16:00 +2°C° 0 mm 2 mps 741 mmHg 89%
    17:00 +1°C° 0 mm 2 mps 742 mmHg 90%
    18:00 -1°C° 0 mm 2 mps 743 mmHg 91%
    19:00 -1°C° 0 mm 2 mps 743 mmHg 90%
    20:00 +1°C° 0 mm 1 mps 744 mmHg 89%
    21:00 +1°C° 0 mm 1 mps 745 mmHg 89%
    22:00 +1°C° 0 mm 1 mps 745 mmHg 88%
    23:00 +1°C° 0 mm 1 mps 746 mmHg 87%

    25 January, Friday

    Time Temperature Precipitation Wind Pressure Humidity
    00:00 -1°C° 0 mm 0 mps 746 mmHg 87%
    01:00 -1°C° 0 mm 0 mps 746 mmHg 87%
    02:00 -1°C° 0 mm 0 mps 747 mmHg 87%
    03:00 0°C° 0 mm 1 mps 747 mmHg 87%
    04:00 +1°C° 0 mm 1 mps 747 mmHg 86%
    05:00 +1°C° 0 mm 1 mps 747 mmHg 86%
    06:00 -1°C° 0 mm 2 mps 747 mmHg 85%
    07:00 +1°C° 0 mm 2 mps 748 mmHg 85%
    08:00 +1°C° 0 mm 2 mps 748 mmHg 84%
    09:00 0°C° 0 mm 3 mps 748 mmHg 84%
    10:00 +1°C° 0.1 mm 3 mps 748 mmHg 83%
    11:00 +1°C° 0.1 mm 3 mps 748 mmHg 83%
    12:00 0°C° 0.1 mm 4 mps 748 mmHg 82%
    13:00 0°C° 0 mm 4 mps 748 mmHg 84%
    14:00 +1°C° 0 mm 4 mps 748 mmHg 85%
    15:00 +1°C° 0 mm 4 mps 747 mmHg 87%
    16:00 +1°C° 0 mm 4 mps 747 mmHg 90%
    17:00 +2°C° 0 mm 3 mps 747 mmHg 93%
    18:00 +2°C° 0 mm 3 mps 748 mmHg 96%
    19:00 +2°C° 0 mm 3 mps 747 mmHg 97%
    20:00 +2°C° 0 mm 3 mps 747 mmHg 97%
    21:00 +2°C° 0 mm 3 mps 747 mmHg 98%
    22:00 +2°C° 0 mm 3 mps 747 mmHg 97%
    23:00 +1°C° 0 mm 4 mps 746 mmHg 96%
    Show more